Location: Holiday Acres Laynes 2 Mobile Home Park
(26.7249°N, 81.8671°W)
Time: 07:06:12
(UTC+00:00)

Cosmos 2150 Rocket - Pass Details

Date: 25 November 2020
Orbit: 749 x 807 km, 74.0° (Epoch: 21 January)

Event Time Altitude Azimuth Distance (km) Brightness Sun altitude
Rises 23:05:39 0° 343° (NNW) 3,196 7.2 -7.3°
Reaches altitude 10° 23:08:00 10° 342° (NNW) 2,268 6.4 -7.8°
Maximum altitude 23:13:08 80° 257° (WSW) 763 4.1 -8.9°
Drops below altitude 10° 23:18:16 10° 170° (S) 2,268 6.6 -10.0°
Sets 23:20:37 0° 169° (SSE) 3,196 7.3 -10.5°
